When you browse on this site, cookies collect data to enhance your experience and personalize the content and advertising you see.
Visit our Privacy Policy to learn more. By continuing to use the site, you agree to this use of cookies and data.
  • In United Kingdom
  • List of Countries
  • For 7 days
  • Water Temperature
  • Weather Map
  • Weather Widgets
  • user-avatar
    Login

    Hourly Weather Wakefield

    Today, 18 February, Tuesday

    Time Temperature Precipitation Wind Pressure Humidity
    00:00 +2°C° 0 mm 8 mps 751 mmHg 73%
    01:00 +1°C° 0 mm 8 mps 752 mmHg 74%
    02:00 +2°C° 0 mm 7 mps 752 mmHg 74%
    03:00 +2°C° 0 mm 7 mps 752 mmHg 75%
    04:00 +2°C° 0 mm 6 mps 752 mmHg 74%
    05:00 +3°C° 0 mm 6 mps 752 mmHg 74%
    06:00 +3°C° 0 mm 6 mps 752 mmHg 76%
    07:00 +3°C° 0.1 mm 6 mps 752 mmHg 77%
    08:00 +3°C° 0.1 mm 7 mps 753 mmHg 79%
    09:00 +3°C° 0.1 mm 7 mps 753 mmHg 80%
    10:00 +4°C° 0.1 mm 7 mps 752 mmHg 77%
    11:00 +5°C° 0.1 mm 8 mps 752 mmHg 74%
    12:00 +5°C° 0 mm 6 mps 751 mmHg 74%
    13:00 +5°C° 0.2 mm 8 mps 751 mmHg 73%
    14:00 +6°C° 0.2 mm 9 mps 750 mmHg 72%
    15:00 +6°C° 0.2 mm 10 mps 750 mmHg 72%
    16:00 +5°C° 0.2 mm 9 mps 750 mmHg 71%
    17:00 +5°C° 0.2 mm 8 mps 750 mmHg 71%
    18:00 +4°C° 0.2 mm 8 mps 750 mmHg 71%
    19:00 +3°C° 0 mm 7 mps 750 mmHg 70%
    20:00 +3°C° 0 mm 7 mps 751 mmHg 68%
    21:00 +2°C° 0 mm 6 mps 751 mmHg 67%
    22:00 +2°C° 0 mm 6 mps 752 mmHg 67%
    23:00 +2°C° 0 mm 7 mps 752 mmHg 67%

    Tomorrow, 19 February, Wednesday

    Time Temperature Precipitation Wind Pressure Humidity
    00:00 0°C° 0 mm 7 mps 753 mmHg 68%
    01:00 0°C° 0 mm 7 mps 753 mmHg 68%
    02:00 0°C° 0 mm 7 mps 753 mmHg 69%
    03:00 0°C° 0 mm 7 mps 754 mmHg 69%
    04:00 +1°C° 0 mm 6 mps 754 mmHg 70%
    05:00 +1°C° 0 mm 6 mps 755 mmHg 72%
    06:00 +1°C° 0 mm 5 mps 755 mmHg 73%
    07:00 +1°C° 0 mm 5 mps 755 mmHg 73%
    08:00 +1°C° 0 mm 5 mps 755 mmHg 73%
    09:00 +2°C° 0 mm 5 mps 755 mmHg 72%
    10:00 +2°C° 0 mm 5 mps 755 mmHg 74%
    11:00 +2°C° 0 mm 5 mps 755 mmHg 76%
    12:00 +3°C° 0 mm 6 mps 754 mmHg 77%
    13:00 +3°C° 0.3 mm 6 mps 753 mmHg 81%
    14:00 +3°C° 0.3 mm 6 mps 752 mmHg 84%
    15:00 +4°C° 0.3 mm 6 mps 751 mmHg 88%
    16:00 +4°C° 0.8 mm 6 mps 750 mmHg 88%
    17:00 +5°C° 0.8 mm 6 mps 749 mmHg 89%
    18:00 +7°C° 0.8 mm 6 mps 749 mmHg 89%
    19:00 +6°C° 0.4 mm 7 mps 748 mmHg 88%
    20:00 +6°C° 0.4 mm 7 mps 748 mmHg 88%
    21:00 +8°C° 0.4 mm 7 mps 748 mmHg 87%
    22:00 +8°C° 0.2 mm 7 mps 748 mmHg 86%
    23:00 +8°C° 0.2 mm 7 mps 747 mmHg 86%

    Day after tomorrow, 20 February, Thursday

    Time Temperature Precipitation Wind Pressure Humidity
    00:00 +8°C° 0.2 mm 7 mps 747 mmHg 85%
    01:00 +8°C° 0.1 mm 7 mps 746 mmHg 84%
    02:00 +8°C° 0.1 mm 7 mps 746 mmHg 83%
    03:00 +8°C° 0.1 mm 7 mps 745 mmHg 82%
    04:00 +7°C° 0 mm 8 mps 744 mmHg 81%
    05:00 +7°C° 0 mm 8 mps 743 mmHg 80%
    06:00 +6°C° 0 mm 8 mps 742 mmHg 79%
    07:00 +7°C° 0.4 mm 8 mps 742 mmHg 80%
    08:00 +7°C° 0.4 mm 9 mps 742 mmHg 81%
    09:00 +7°C° 0.4 mm 9 mps 741 mmHg 82%
    10:00 +5°C° 1.2 mm 9 mps 742 mmHg 84%
    11:00 +4°C° 1.2 mm 8 mps 743 mmHg 86%
    12:00 +2°C° 1.2 mm 8 mps 743 mmHg 87%
    13:00 +2°C° 0.2 mm 8 mps 744 mmHg 77%
    14:00 +2°C° 0.2 mm 9 mps 745 mmHg 66%
    15:00 +2°C° 0.2 mm 9 mps 747 mmHg 56%
    16:00 +2°C° 0 mm 8 mps 747 mmHg 58%
    17:00 +1°C° 0 mm 8 mps 748 mmHg 60%
    18:00 0°C° 0 mm 7 mps 749 mmHg 61%
    19:00 0°C° 0 mm 7 mps 750 mmHg 63%
    20:00 0°C° 0 mm 8 mps 751 mmHg 65%
    21:00 0°C° 0 mm 8 mps 752 mmHg 67%
    22:00 0°C° 0 mm 8 mps 753 mmHg 69%
    23:00 0°C° 0 mm 8 mps 753 mmHg 72%

    21 February, Friday

    Time Temperature Precipitation Wind Pressure Humidity
    00:00 0°C° 0 mm 7 mps 754 mmHg 74%
    01:00 +2°C° 0 mm 7 mps 755 mmHg 75%
    02:00 +2°C° 0 mm 7 mps 755 mmHg 75%
    03:00 +2°C° 0 mm 7 mps 756 mmHg 75%
    04:00 +2°C° 0 mm 7 mps 756 mmHg 75%
    05:00 +2°C° 0 mm 7 mps 756 mmHg 75%
    06:00 +2°C° 0 mm 7 mps 756 mmHg 75%
    13:00 +6°C° 0.1 mm 10 mps 755 mmHg 71%
    14:00 +6°C° 0.1 mm 10 mps 754 mmHg 71%
    15:00 +7°C° 0.1 mm 10 mps 754 mmHg 72%
    16:00 +7°C° 0.2 mm 10 mps 753 mmHg 73%
    17:00 +7°C° 0.2 mm 10 mps 753 mmHg 74%
    18:00 +7°C° 0.2 mm 10 mps 753 mmHg 74%
    19:00 +7°C° 0.4 mm 10 mps 753 mmHg 76%
    20:00 +7°C° 0.4 mm 10 mps 752 mmHg 78%
    21:00 +8°C° 0.4 mm 10 mps 752 mmHg 81%
    22:00 +8°C° 0.1 mm 10 mps 752 mmHg 80%
    23:00 +8°C° 0.1 mm 10 mps 752 mmHg 80%

    22 February, Saturday

    Time Temperature Precipitation Wind Pressure Humidity
    00:00 +8°C° 0.1 mm 10 mps 752 mmHg 80%
    01:00 +10°C° 0 mm 9 mps 752 mmHg 80%
    02:00 +10°C° 0 mm 9 mps 751 mmHg 81%
    03:00 +10°C° 0 mm 9 mps 751 mmHg 81%
    04:00 +10°C° 0.4 mm 9 mps 751 mmHg 81%
    05:00 +10°C° 0.4 mm 9 mps 750 mmHg 81%
    06:00 +10°C° 0.4 mm 9 mps 750 mmHg 81%
    07:00 +10°C° 0.4 mm 9 mps 750 mmHg 78%
    08:00 +10°C° 0.4 mm 9 mps 750 mmHg 75%
    09:00 +9°C° 0.4 mm 10 mps 750 mmHg 72%
    10:00 +9°C° 0 mm 10 mps 751 mmHg 68%
    11:00 +9°C° 0 mm 11 mps 751 mmHg 64%
    12:00 +9°C° 0 mm 12 mps 751 mmHg 59%
    13:00 +8°C° 0 mm 12 mps 752 mmHg 61%
    14:00 +8°C° 0 mm 11 mps 752 mmHg 63%
    15:00 +7°C° 0 mm 11 mps 752 mmHg 64%
    16:00 +6°C° 0.1 mm 10 mps 753 mmHg 67%
    17:00 +6°C° 0.1 mm 10 mps 753 mmHg 70%
    18:00 +5°C° 0.1 mm 9 mps 754 mmHg 72%
    19:00 +5°C° 0 mm 9 mps 755 mmHg 73%
    20:00 +5°C° 0 mm 9 mps 755 mmHg 73%
    21:00 +4°C° 0 mm 8 mps 756 mmHg 74%
    22:00 +4°C° 0 mm 8 mps 756 mmHg 75%
    23:00 +4°C° 0 mm 8 mps 756 mmHg 76%

    23 February, Sunday

    Time Temperature Precipitation Wind Pressure Humidity
    00:00 +4°C° 0 mm 8 mps 757 mmHg 77%
    01:00 +4°C° 0.4 mm 8 mps 756 mmHg 79%
    02:00 +4°C° 0.4 mm 8 mps 756 mmHg 82%
    03:00 +3°C° 0.4 mm 7 mps 756 mmHg 85%
    04:00 +3°C° 0.4 mm 6 mps 756 mmHg 86%
    05:00 +3°C° 0.4 mm 5 mps 755 mmHg 87%
    06:00 +4°C° 0.4 mm 4 mps 755 mmHg 87%
    07:00 +4°C° 0.6 mm 3 mps 754 mmHg 89%
    08:00 +5°C° 0.6 mm 2 mps 753 mmHg 90%
    09:00 +6°C° 0.6 mm 1 mps 753 mmHg 91%
    10:00 +6°C° 0.5 mm 1 mps 753 mmHg 91%
    11:00 +6°C° 0.5 mm 1 mps 752 mmHg 91%
    12:00 +6°C° 0.5 mm 1 mps 752 mmHg 92%
    13:00 +6°C° 0.1 mm 2 mps 753 mmHg 89%
    14:00 +5°C° 0.1 mm 3 mps 754 mmHg 86%
    15:00 +5°C° 0.1 mm 4 mps 754 mmHg 83%
    16:00 +5°C° 0 mm 5 mps 755 mmHg 82%
    17:00 +3°C° 0 mm 5 mps 757 mmHg 81%
    18:00 +3°C° 0 mm 5 mps 758 mmHg 80%
    19:00 +3°C° 0 mm 4 mps 759 mmHg 80%
    20:00 +3°C° 0 mm 4 mps 760 mmHg 79%
    21:00 +2°C° 0 mm 3 mps 761 mmHg 78%
    22:00 +2°C° 0 mm 3 mps 762 mmHg 79%
    23:00 +2°C° 0 mm 3 mps 762 mmHg 80%
    Show more